Temp
22 24 24 21 20 18 18 18 18 16 17 16 16 15 15 14 15 15 15 14 14 14 14 13 13 12 12 12 11 11 10 10 9 9 9 9 10 9 9 9 9 9 8
20 22 23 22 19 16 17 17 16 17 17 17 16 16 15 15 15 15 14 14 14 14 13 13 12 12 12 11 11 10 10 10 9 9 8 5 8 8 8 8 8 8 7
20 20 21 17 16 15 16 15 16 16 16 17 16 16 16 15 15 15 14 14 13 13 13 12 12 11 11 11 11 10 10 9 9 9 8 4 4 6 7 7 7 7 7
21 20 17 16 16 16 17 17 16 16 17 16 17 17 16 15 15 15 14 14 13 13 13 13 12 12 11 11 10 10 10 9 9 8 8 8 7 3 3 6 6 6 6
20 19 18 18 17 17 17 17 18 18 17 17 18 17 17 16 16 15 14 14 14 14 13 13 12 11 11 10 10 9 9 9 8 8 7 7 6 6 3 3 4 5 5
20 19 18 18 18 18 18 18 17 17 18 18 18 18 16 15 15 14 14 14 13 13 12 12 11 10 10 10 9 9 9 9 8 7 7 6 5 4 4 2 2 3 4
18 18 17 17 18 18 18 18 18 18 18 17 16 16 15 15 14 14 13 13 13 12 11 11 10 10 9 9 8 8 8 8 8 7 6 5 5 5 4 3 2 1 4
19 17 17 18 18 19 19 18 18 17 17 16 15 14 14 14 14 13 12 12 12 11 10 10 10 9 9 8 8 8 7 7 7 6 5 5 4 4 3 3 2 -0 1
18 18 17 18 19 18 18 18 18 17 16 15 14 14 14 13 13 12 12 10 11 10 10 9 9 8 8 7 7 7 7 6 6 5 5 4 4 4 3 3 3 2 -2
18 18 18 17 18 18 18 18 18 16 15 14 14 13 13 12 11 11 10 11 10 10 9 8 8 7 7 7 6 6 5 5 4 4 4 4 4 3 3 2 2 2 2
18 17 17 18 18 18 18 18 16 15 14 13 13 13 12 11 11 11 11 10 10 9 8 8 7 7 6 6 6 5 4 3 3 2 2 2 2 2 2 1 1 0 -1
19 18 18 19 18 17 16 15 15 13 13 13 12 12 11 11 11 11 10 10 9 8 8 7 7 6 6 6 5 4 3 2 2 2 2 2 1 2 1 1 0 -0 -1
18 18 18 17 16 16 16 14 13 12 12 12 12 12 11 10 11 10 9 9 8 8 7 7 6 6 5 5 4 4 3 2 2 2 2 1 1 1 1 0 -0 -1 -2
20 19 18 17 16 15 14 12 11 12 12 12 11 10 11 10 9 9 9 8 8 7 7 6 6 5 4 4 3 3 3 2 2 1 1 1 1 1 0 -0 -1 -2 -3
18 18 16 15 14 12 12 12 12 12 12 11 10 10 9 9 8 8 8 7 7 7 7 6 5 5 4 3 3 2 2 1 1 1 1 1 1 0 -0 -2 -2 -3 -4
18 17 15 15 13 12 12 12 12 12 11 10 9 9 9 8 7 7 7 6 6 6 6 6 5 4 3 3 2 1 1 -0 -2 0 0 0 -0 -1 -1 -2 -3 -4 -5
18 16 16 15 14 13 13 12 11 10 10 9 9 8 8 7 7 6 5 5 6 5 5 4 4 3 3 2 2 1 -0 -2 -2 -1 -1 -1 -1 -1 -2 -2 -3 -3 -4
16 15 14 13 13 13 12 10 10 10 9 8 8 7 7 7 6 5 5 5 5 4 4 3 3 2 2 2 1 0 -1 -2 -1 -1 -1 -2 -2 -2 -2 -3 -4 -4 -5
14 13 12 11 11 11 11 10 9 8 8 7 7 7 6 5 5 5 5 5 4 4 3 2 2 2 1 0 -0 -1 -1 -2 -2 -2 -2 -2 -3 -3 -3 -4 -4 -5 -6
13 11 10 9 9 9 9 8 7 7 7 7 5 6 4 4 4 5 4 4 4 3 3 2 2 1 0 -1 -1 -2 -2 -2 -2 -2 -3 -3 -3 -4 -4 -5 -5 -7 -6
10 9 7 6 6 7 7 7 7 6 6 6 5 4 4 4 4 4 3 2 2 3 2 1 0 0 -0 -0 -1 -2 -3 -2 -3 -3 -3 -4 -4 -4 -5 -5 -6 -6 -6
7 6 5 5 6 6 6 6 6 6 6 5 4 4 4 4 4 3 2 1 1 1 1 1 1 0 -0 -1 -1 -2 -2 -2 -3 -3 -3 -4 -5 -5 -5 -5 -5 -6 -6
5 5 5 5 5 5 6 6 5 5 4 4 4 4 4 4 3 3 1 0 -0 -1 -1 -1 -0 -0 -1 -1 -1 -2 -2 -2 -3 -3 -4 -4 -5 -5 -5 -5 -5 -5 -6
5 6 6 6 6 6 6 6 5 5 4 4 4 4 4 3 3 2 1 -0 -0 -1 -1 -2 -2 -2 -2 -2 -2 -2 -2 -2 -3 -4 -4 -5 -5 -5 -5 -5 -5 -5 -5
5 6 6 5 5 5 5 5 5 5 5 5 4 3 3 2 2 1 1 0 -0 -1 -1 -1 -1 -2 -3 -2 -2 -2 -3 -4 -4 -4 -5 -5 -5 -5 -5 -5 -5 -5 -5
5 5 5 6 6 6 6 6 5 5 5 4 4 4 3 2 2 1 1 0 0 -0 -1 -1 -1 -1 -1 -2 -2 -3 -3 -4 -4 -5 -5 -5 -5 -5 -5 -5 -5 -5 -5
Height
794 798 803 807 812 814 817 821 826 830 834 839 841 844 846 850 852 854 855 857 858 859 859 860 861 861 861 862 862 862 861 860 859 857 855 855 855 856 856 855 854 853 852
793 797 801 806 809 812 815 820 824 829 833 837 840 841 845 848 851 854 855 856 858 858 859 861 861 861 862 862 862 860 859 859 858 857 855 854 851 853 854 854 852 852 851
791 795 799 804 807 811 815 819 824 828 832 834 837 841 845 849 851 853 854 855 856 857 858 858 859 860 860 860 860 860 858 858 858 858 859 857 856 851 850 850 850 849 848
790 794 800 806 810 813 817 820 823 825 829 833 835 839 842 845 848 849 852 854 855 855 856 856 857 857 858 858 858 858 857 856 855 856 857 856 854 852 848 847 847 846 844
785 792 797 802 808 811 814 818 822 824 828 831 834 837 841 843 844 848 851 853 854 855 855 855 856 856 857 857 856 856 856 855 854 853 853 852 850 849 847 843 843 843 843
784 790 795 800 805 810 814 818 821 824 828 830 834 836 839 842 845 848 850 851 853 853 853 854 854 855 855 855 854 853 853 851 850 849 849 848 848 847 846 844 840 839 838
784 790 795 800 804 810 813 817 820 823 826 830 834 836 839 842 844 846 847 848 850 851 851 852 853 852 852 852 851 851 850 849 847 845 845 844 844 844 842 841 840 836 834
781 788 792 797 803 808 812 815 818 822 826 830 833 836 838 841 843 845 847 849 849 850 849 850 850 850 850 849 849 848 847 845 843 842 841 840 840 840 839 838 838 835 831
782 787 793 797 803 808 812 816 819 823 826 829 832 836 839 842 843 844 846 847 849 849 848 849 849 849 849 848 847 845 843 841 840 839 838 837 835 834 835 835 834 833 833
782 786 791 795 800 806 811 816 819 821 825 828 831 835 838 841 843 844 844 846 847 847 847 847 847 847 847 846 844 842 841 840 838 837 835 834 833 832 831 831 831 832 828
779 783 788 793 797 803 807 813 816 820 824 827 831 834 838 840 843 843 844 845 845 845 845 845 845 845 844 842 841 839 839 838 836 834 832 831 831 830 829 829 828 827 826
773 778 783 789 795 799 805 809 814 819 824 828 831 834 837 840 842 843 843 844 844 843 843 842 842 841 840 839 838 836 835 834 832 830 829 829 829 827 826 825 825 824 823
769 773 780 786 792 798 804 811 815 820 824 829 831 835 838 840 842 842 843 842 842 841 840 839 838 837 835 834 833 832 832 831 829 828 827 826 825 825 823 822 821 820 819
763 769 777 784 791 797 802 809 816 821 825 828 832 836 837 840 841 841 841 840 839 838 838 836 834 832 831 830 829 828 827 827 826 825 824 823 821 821 820 819 818 817 816
765 770 777 785 792 798 804 810 815 820 824 829 832 833 837 838 838 838 839 839 837 835 833 832 829 828 828 827 826 824 824 824 823 821 820 819 819 817 816 816 814 814 813
765 771 777 784 790 796 803 808 813 819 824 828 832 833 836 837 837 837 836 835 833 831 829 827 826 824 824 823 821 820 821 820 820 820 818 815 815 814 813 812 812 812 810
765 770 775 781 786 794 800 807 813 819 823 828 832 835 837 838 838 836 833 831 829 827 826 825 822 820 819 818 817 816 816 816 816 816 814 812 812 811 810 809 808 807 806
767 772 776 783 790 795 802 809 814 819 824 828 831 834 835 836 835 834 833 830 826 824 823 822 820 817 815 814 813 813 814 814 814 812 810 809 808 808 806 805 804 803 801
771 776 781 787 794 800 806 810 816 820 825 828 830 833 832 831 830 829 829 828 824 821 819 817 815 813 811 811 810 809 810 810 810 808 806 806 804 803 802 801 800 797 795
777 783 789 794 798 805 807 811 817 821 824 827 829 829 829 828 827 826 824 824 821 817 815 813 812 810 807 807 807 807 807 806 805 804 803 802 801 800 799 798 796 793 792
787 790 794 799 805 808 810 815 818 822 824 826 826 826 826 824 823 822 821 820 817 813 810 809 808 807 806 803 802 802 802 802 801 800 799 798 797 797 796 795 792 791 789
796 798 801 806 810 812 814 818 820 822 824 824 824 824 823 821 819 818 817 815 814 811 808 805 802 801 800 799 797 798 797 797 796 795 794 794 794 793 792 791 789 787 786
802 805 807 811 814 816 816 819 821 822 822 822 821 820 819 817 815 813 812 810 809 807 804 802 798 796 795 794 794 793 792 791 790 789 790 789 789 788 787 786 785 783 782
807 810 811 814 816 817 819 820 820 820 819 818 817 816 814 813 811 809 807 806 804 803 800 797 795 792 790 790 789 788 786 785 784 783 784 784 784 784 782 781 780 778 777
811 812 814 816 818 818 818 818 817 817 815 813 812 811 810 808 806 804 802 800 798 797 793 790 789 787 784 783 783 781 780 779 778 778 778 779 779 778 776 775 775 774 773
813 815 817 817 817 817 816 815 815 814 811 809 807 805 803 801 800 797 794 792 789 787 786 784 782 779 777 776 775 774 774 774 774 773 773 773 773 772 771 770 769 769 768
Wind_Speed
12 20 18 30 30 35 38 38 34 29 26 21 17 11 8 9 11 12 13 12 10 8 8 9 8 6 6 7 6 8 10 12 13 13 21 17 7 19 15 17 18 19 20
8 13 15 13 30 32 35 32 29 27 23 20 15 9 12 10 16 15 14 12 8 7 8 3 1 5 6 5 9 13 12 11 13 15 13 4 14 10 20 17 16 16 15
11 8 13 21 28 30 31 27 24 23 22 19 16 13 15 18 18 17 13 8 8 7 4 1 4 5 5 8 11 12 11 11 14 10 6 3 2 8 5 18 10 20 18
12 10 17 22 25 24 21 21 20 21 21 15 22 22 20 23 21 17 11 9 8 3 3 5 8 9 9 8 11 12 15 14 9 9 14 15 13 2 4 2 16 15 20
15 13 18 26 25 27 26 23 21 20 16 22 22 24 22 15 17 17 14 9 2 2 4 7 7 5 5 6 8 11 13 14 12 11 11 14 14 15 3 5 4 10 12
12 15 21 23 22 18 21 26 22 18 19 19 20 17 20 21 21 17 12 7 8 6 7 3 2 2 7 11 14 17 17 18 15 16 15 11 6 11 10 3 4 10 16
11 12 12 16 21 19 21 23 27 22 17 16 14 19 19 16 12 9 8 4 1 3 5 5 6 8 10 13 15 16 18 19 20 18 13 12 14 18 14 11 12 7 17
11 11 16 22 23 19 17 22 23 21 17 15 15 13 13 12 10 6 3 3 2 3 4 7 9 12 13 15 17 19 19 20 14 10 12 10 11 14 13 15 11 5 4
10 13 17 24 25 19 16 15 21 21 20 19 17 13 10 7 3 4 1 5 6 4 6 8 10 12 15 16 16 18 20 13 11 14 12 13 13 12 11 10 8 5 3
9 12 17 23 28 27 23 21 22 27 25 22 19 15 10 2 3 6 3 5 5 5 6 8 10 12 13 14 13 11 8 10 8 6 6 8 8 7 5 5 9 11 13
11 10 14 25 30 33 31 23 26 29 25 22 17 12 5 8 6 4 5 6 6 5 6 8 9 12 12 13 11 13 16 16 12 10 10 7 5 5 6 9 13 8 11
13 9 17 22 24 24 25 26 28 24 22 17 10 5 7 6 7 7 4 5 4 4 6 8 10 13 16 15 14 16 13 11 14 12 8 9 8 7 8 5 7 11 16
12 9 14 18 22 24 27 26 25 24 17 10 7 6 6 4 1 1 0 3 7 9 10 11 15 17 12 11 14 16 10 12 10 10 10 10 10 10 7 9 13 16 15
14 10 13 18 22 24 26 29 24 17 11 9 6 4 2 2 1 3 6 9 9 11 13 15 18 10 8 11 12 14 12 11 10 10 9 11 10 6 10 12 10 11 13
10 14 13 13 21 25 28 26 19 13 10 7 10 11 7 2 3 6 9 11 14 17 18 16 12 10 10 12 12 12 10 10 7 8 7 6 8 10 9 5 8 9 12
11 12 13 17 22 26 28 22 18 13 14 12 11 7 3 4 7 9 10 13 15 15 15 17 12 11 12 13 14 12 14 15 10 13 10 8 7 6 7 5 6 9 13
8 11 12 19 24 26 26 26 21 20 15 12 10 7 6 7 8 13 14 15 14 12 12 11 13 12 9 13 15 15 15 7 8 11 7 5 6 9 8 10 14 17 20
8 9 15 21 22 26 27 28 22 17 12 11 7 3 7 13 13 13 15 14 13 16 19 18 14 8 10 13 15 15 9 8 9 8 8 8 10 11 12 14 15 20 21
11 18 26 30 32 30 27 25 20 19 14 11 7 7 13 10 12 14 16 17 16 19 18 12 7 9 14 14 15 11 10 10 11 12 14 11 11 11 11 14 19 22 21
22 25 29 31 32 27 25 24 20 14 9 3 6 14 10 12 12 15 15 18 18 19 18 15 12 12 12 11 11 13 13 14 13 14 11 10 11 10 12 16 19 18 17
27 30 30 28 28 25 24 19 14 12 4 8 5 8 10 12 13 13 15 17 18 20 12 10 11 13 13 16 15 16 17 17 15 13 13 13 13 12 13 16 15 14 13
25 27 27 25 23 20 16 10 3 5 9 8 11 12 13 14 13 15 17 15 18 15 14 16 19 17 17 15 13 15 19 19 18 17 15 14 13 15 18 16 13 13 14
23 23 24 20 15 10 8 2 5 8 8 10 12 13 14 14 14 14 13 15 17 19 22 21 23 23 19 15 14 16 18 18 22 21 17 14 13 16 17 16 17 16 17
18 18 16 12 6 2 4 6 9 9 11 11 14 14 14 14 14 15 14 14 15 19 22 20 18 18 15 14 13 17 18 18 21 22 18 17 17 14 18 17 14 13 12
13 10 7 4 3 4 6 9 11 11 13 17 16 12 16 17 16 18 19 20 20 20 23 24 24 23 22 22 20 18 17 16 16 15 18 16 16 18 17 18 16 13 12
7 3 2 2 8 9 10 9 11 14 16 13 18 23 24 21 23 25 27 24 24 24 22 23 25 28 29 27 24 22 20 19 19 16 20 20 18 18 21 20 16 14 13
Wind_Direction
142 143 139 157 153 158 161 163 164 161 164 170 174 183 181 170 152 139 127 123 126 121 110 95 89 65 46 28 29 17 6 3 360 348 344 343 19 341 353 3 359 355 7
129 129 136 131 153 151 162 164 163 166 178 179 182 178 171 178 154 145 147 154 143 100 94 113 354 338 354 14 358 353 346 337 343 350 342 340 330 360 332 325 344 348 356
149 142 134 123 142 150 160 162 164 172 182 180 175 179 172 159 161 166 165 162 133 135 136 38 347 345 334 338 333 328 321 323 333 339 334 344 278 322 298 327 320 326 323
148 146 121 129 145 155 157 165 174 179 179 183 178 165 172 165 175 180 163 161 176 184 302 327 321 316 307 308 310 308 302 299 309 306 302 299 306 287 313 316 313 318 319
164 148 149 154 161 163 167 173 174 176 188 180 170 169 177 168 169 165 152 155 194 285 308 324 313 281 301 329 342 335 324 305 299 300 300 291 291 302 272 305 298 317 309
136 146 155 163 168 174 174 181 189 179 146 163 168 176 154 142 133 138 140 142 128 89 95 103 90 351 326 328 327 324 320 301 285 292 295 286 284 287 288 299 296 287 300
135 148 147 155 162 178 185 174 151 145 147 139 137 137 133 133 128 129 132 147 147 17 14 353 337 333 333 330 327 322 319 316 297 294 289 287 289 287 266 270 281 267 293
144 143 142 141 143 144 145 146 151 150 153 153 142 137 133 125 122 120 101 66 358 9 339 330 329 329 327 324 324 321 318 320 298 287 291 288 292 296 280 264 264 287 279
149 151 147 149 154 159 172 168 160 161 166 165 153 144 142 150 103 105 221 293 271 286 296 320 326 323 322 323 321 319 317 306 302 312 307 287 300 278 275 289 286 299 295
156 159 159 161 166 175 183 195 182 169 159 156 157 153 159 148 155 224 247 242 256 281 296 307 314 318 319 321 319 329 351 345 353 338 323 311 302 276 245 290 312 307 315
172 163 162 170 172 180 183 179 165 156 152 150 154 154 169 188 224 216 241 255 255 263 283 297 308 315 309 303 307 321 321 317 323 328 329 308 309 314 311 321 318 338 2
172 167 166 163 168 160 152 150 152 150 151 150 147 166 179 181 216 254 247 213 229 274 284 294 302 307 292 289 302 324 322 325 323 313 309 301 302 297 303 303 327 331 335
169 164 150 145 141 135 133 139 147 140 138 147 133 149 208 201 84 106 29 295 300 296 289 296 303 298 270 288 302 312 300 300 301 302 305 301 300 306 297 318 320 325 328
174 158 142 135 136 142 139 133 131 140 140 143 169 179 102 195 62 328 315 312 303 290 291 298 296 264 286 308 311 288 291 284 276 286 296 304 289 300 316 313 321 326 316
127 134 130 128 131 129 135 138 139 137 140 140 117 104 100 61 335 321 316 315 308 299 292 288 265 267 290 311 300 288 267 276 282 266 294 284 309 315 314 310 310 311 314
137 138 142 140 137 137 141 144 142 144 139 106 87 78 53 357 336 313 308 307 306 309 304 296 264 288 309 300 297 290 269 256 279 290 302 293 303 308 283 285 297 311 322
140 143 146 141 141 142 148 145 134 126 110 97 83 48 3 340 311 303 298 305 312 322 337 304 289 298 302 301 294 294 285 250 271 287 292 298 304 299 286 299 308 314 319
102 99 108 110 120 136 132 123 118 110 109 107 89 21 342 304 292 310 312 307 305 312 319 310 293 290 297 307 295 293 261 257 272 278 285 301 304 292 294 300 308 315 319
101 106 110 111 112 112 115 111 104 106 95 67 43 340 271 291 306 301 305 303 303 310 316 306 275 299 313 302 295 256 244 254 272 283 290 291 294 293 291 304 313 317 319
97 99 100 100 103 101 102 90 78 69 46 61 303 271 286 296 300 310 306 301 296 302 290 275 281 304 305 297 283 257 245 259 281 291 286 281 293 284 294 310 315 310 316
89 93 90 87 88 89 85 77 73 63 63 248 276 290 286 294 294 296 308 316 326 307 263 268 290 299 289 290 279 259 250 261 273 278 273 273 285 283 303 310 304 302 312
78 84 86 87 86 83 85 77 41 243 266 296 290 290 299 302 282 295 308 317 320 320 290 291 302 306 294 286 272 266 264 268 259 267 277 277 269 278 292 298 301 299 299
85 88 91 90 88 86 69 175 264 289 289 288 296 298 297 295 292 290 286 308 317 319 316 305 298 293 292 285 271 274 273 264 258 262 269 271 270 280 290 293 291 291 286
88 93 92 92 93 41 290 260 285 283 281 279 288 289 291 294 295 279 285 297 303 301 302 295 299 306 294 285 277 278 275 264 262 263 257 262 268 276 292 288 283 285 282
94 91 90 78 335 306 299 285 284 274 269 278 274 270 286 293 290 285 283 289 287 283 288 290 291 284 278 280 276 275 274 268 263 261 257 252 263 282 280 281 274 281 282
87 92 258 319 317 302 300 308 301 291 282 263 273 283 284 278 278 284 282 282 286 293 287 285 279 280 280 284 280 277 274 273 268 250 245 257 266 271 279 282 268 275 278